When you browse on this site, cookies collect data to enhance your experience and personalize the content and advertising you see.
Visit our Privacy Policy to learn more. By continuing to use the site, you agree to this use of cookies and data.

Hourly Weather Siguiri

Today, 6 August, Thursday

Time Temperature Precipitation Wind Pressure Humidity
00:00 +23°C° 1.7 mm 5 mps 715 mmHg 92%
01:00 +23°C° 0 mm 6 mps 715 mmHg 91%
02:00 +23°C° 1.2 mm 6 mps 715 mmHg 92%
03:00 +23°C° 1.2 mm 6 mps 714 mmHg 93%
04:00 +22°C° 1.2 mm 6 mps 714 mmHg 93%
05:00 +22°C° 0.7 mm 6 mps 714 mmHg 93%
06:00 +23°C° 0.7 mm 5 mps 715 mmHg 93%
07:00 +23°C° 0 mm 5 mps 715 mmHg 93%
08:00 +23°C° 0.9 mm 5 mps 715 mmHg 92%
09:00 +23°C° 0.9 mm 6 mps 715 mmHg 91%
10:00 +24°C° 0.9 mm 6 mps 716 mmHg 90%
11:00 +23°C° 2.6 mm 6 mps 716 mmHg 91%
12:00 +23°C° 2.6 mm 6 mps 715 mmHg 92%
13:00 +23°C° 0 mm 5 mps 715 mmHg 94%
14:00 +23°C° 9.4 mm 4 mps 715 mmHg 95%
15:00 +22°C° 9.4 mm 4 mps 715 mmHg 96%
16:00 +22°C° 9.4 mm 4 mps 714 mmHg 96%
17:00 +22°C° 4.7 mm 4 mps 715 mmHg 96%
18:00 +22°C° 4.7 mm 4 mps 715 mmHg 95%
19:00 +22°C° 4.7 mm 5 mps 715 mmHg 95%
20:00 +22°C° 0.3 mm 5 mps 716 mmHg 94%
21:00 +22°C° 0.3 mm 4 mps 716 mmHg 93%
22:00 +22°C° 0.3 mm 4 mps 717 mmHg 93%
23:00 +22°C° 0 mm 4 mps 716 mmHg 92%

Tomorrow, 7 August, Friday

Time Temperature Precipitation Wind Pressure Humidity
00:00 +22°C° 0 mm 4 mps 716 mmHg 92%
01:00 +22°C° 0 mm 4 mps 716 mmHg 92%
02:00 +22°C° 0 mm 4 mps 716 mmHg 91%
03:00 +21°C° 0 mm 4 mps 715 mmHg 91%
04:00 +21°C° 0 mm 4 mps 715 mmHg 90%
05:00 +22°C° 0 mm 4 mps 715 mmHg 90%
06:00 +22°C° 0 mm 4 mps 716 mmHg 91%
07:00 +22°C° 0 mm 3 mps 716 mmHg 91%
08:00 +23°C° 0 mm 4 mps 716 mmHg 86%
09:00 +25°C° 0 mm 5 mps 717 mmHg 82%
10:00 +26°C° 0 mm 5 mps 717 mmHg 77%
11:00 +27°C° 0 mm 5 mps 717 mmHg 74%
12:00 +28°C° 0 mm 5 mps 717 mmHg 71%
13:00 +29°C° 0 mm 5 mps 717 mmHg 69%
14:00 +28°C° 0 mm 5 mps 716 mmHg 70%
15:00 +28°C° 0 mm 5 mps 716 mmHg 70%
16:00 +28°C° 0 mm 5 mps 715 mmHg 71%
17:00 +27°C° 0 mm 4 mps 715 mmHg 75%
18:00 +26°C° 0 mm 4 mps 716 mmHg 79%
19:00 +25°C° 0 mm 3 mps 716 mmHg 83%
20:00 +24°C° 0 mm 3 mps 717 mmHg 85%
21:00 +22°C° 0 mm 3 mps 717 mmHg 86%
22:00 +22°C° 0 mm 3 mps 718 mmHg 87%
23:00 +22°C° 0 mm 3 mps 718 mmHg 87%

Day after tomorrow, 8 August, Saturday

Time Temperature Precipitation Wind Pressure Humidity
00:00 +21°C° 0 mm 3 mps 718 mmHg 87%
01:00 +21°C° 0 mm 4 mps 718 mmHg 87%
02:00 +21°C° 0 mm 4 mps 717 mmHg 87%
03:00 +21°C° 0 mm 4 mps 717 mmHg 88%
04:00 +21°C° 0 mm 3 mps 717 mmHg 89%
05:00 +21°C° 0 mm 3 mps 717 mmHg 89%
06:00 +21°C° 0 mm 3 mps 717 mmHg 89%
07:00 +21°C° 0 mm 3 mps 717 mmHg 90%
08:00 +23°C° 0 mm 4 mps 718 mmHg 84%
09:00 +26°C° 0 mm 4 mps 718 mmHg 78%
10:00 +28°C° 0 mm 5 mps 719 mmHg 72%
11:00 +28°C° 0.1 mm 5 mps 718 mmHg 69%
12:00 +29°C° 0.1 mm 5 mps 718 mmHg 67%
13:00 +30°C° 0.1 mm 5 mps 717 mmHg 65%
14:00 +30°C° 0.1 mm 5 mps 717 mmHg 65%
15:00 +30°C° 0.1 mm 5 mps 716 mmHg 64%
16:00 +30°C° 0.1 mm 5 mps 715 mmHg 64%
17:00 +29°C° 0 mm 4 mps 716 mmHg 69%
18:00 +27°C° 0 mm 3 mps 716 mmHg 73%
19:00 +26°C° 0 mm 2 mps 716 mmHg 78%
20:00 +25°C° 0 mm 2 mps 716 mmHg 81%
21:00 +25°C° 0 mm 3 mps 717 mmHg 83%
22:00 +24°C° 0 mm 3 mps 717 mmHg 85%
23:00 +24°C° 0 mm 3 mps 717 mmHg 87%

9 August, Sunday

Time Temperature Precipitation Wind Pressure Humidity
00:00 +22°C° 0 mm 3 mps 717 mmHg 89%
01:00 +22°C° 0 mm 4 mps 716 mmHg 90%
02:00 +22°C° 0 mm 4 mps 716 mmHg 89%
03:00 +21°C° 0 mm 4 mps 716 mmHg 88%
04:00 +21°C° 0 mm 4 mps 715 mmHg 86%
05:00 +21°C° 0 mm 4 mps 716 mmHg 86%
06:00 +21°C° 0 mm 5 mps 716 mmHg 86%
07:00 +21°C° 0 mm 5 mps 716 mmHg 86%
08:00 +23°C° 0 mm 5 mps 717 mmHg 80%
09:00 +24°C° 0 mm 6 mps 717 mmHg 75%
10:00 +27°C° 0 mm 6 mps 717 mmHg 70%
11:00 +28°C° 0 mm 6 mps 717 mmHg 67%
12:00 +29°C° 0 mm 6 mps 716 mmHg 65%
13:00 +30°C° 0 mm 6 mps 716 mmHg 62%
14:00 +30°C° 0 mm 6 mps 715 mmHg 63%
15:00 +29°C° 0 mm 6 mps 715 mmHg 65%
16:00 +29°C° 0 mm 6 mps 714 mmHg 66%
17:00 +28°C° 0 mm 5 mps 714 mmHg 70%
18:00 +27°C° 0 mm 4 mps 714 mmHg 74%
19:00 +25°C° 0 mm 3 mps 714 mmHg 78%
20:00 +25°C° 0 mm 3 mps 715 mmHg 79%
21:00 +25°C° 0 mm 4 mps 716 mmHg 80%
22:00 +23°C° 0 mm 4 mps 716 mmHg 82%
23:00 +23°C° 0 mm 4 mps 716 mmHg 83%

10 August, Monday

Time Temperature Precipitation Wind Pressure Humidity
00:00 +23°C° 0 mm 4 mps 716 mmHg 84%
01:00 +23°C° 0 mm 4 mps 716 mmHg 85%
02:00 +23°C° 0 mm 4 mps 715 mmHg 83%
03:00 +23°C° 0 mm 5 mps 715 mmHg 82%
04:00 +23°C° 0 mm 5 mps 714 mmHg 81%
05:00 +22°C° 0 mm 5 mps 715 mmHg 81%
06:00 +22°C° 0 mm 5 mps 715 mmHg 81%
07:00 +22°C° 0 mm 5 mps 715 mmHg 81%
08:00 +25°C° 0 mm 5 mps 715 mmHg 77%
09:00 +26°C° 0 mm 6 mps 716 mmHg 74%
10:00 +27°C° 0 mm 6 mps 716 mmHg 70%
11:00 +28°C° 0 mm 6 mps 716 mmHg 69%
12:00 +28°C° 0 mm 5 mps 716 mmHg 67%
13:00 +29°C° 0 mm 4 mps 715 mmHg 66%
14:00 +28°C° 0.2 mm 5 mps 715 mmHg 69%
15:00 +28°C° 0.2 mm 5 mps 714 mmHg 72%
16:00 +27°C° 0.2 mm 5 mps 714 mmHg 75%
17:00 +26°C° 0.1 mm 4 mps 714 mmHg 77%
18:00 +26°C° 0.1 mm 3 mps 714 mmHg 80%
19:00 +25°C° 0.1 mm 2 mps 715 mmHg 83%
20:00 +25°C° 0 mm 2 mps 715 mmHg 84%
21:00 +24°C° 0 mm 3 mps 716 mmHg 84%
22:00 +24°C° 0 mm 3 mps 716 mmHg 85%
23:00 +24°C° 0 mm 3 mps 716 mmHg 85%

11 August, Tuesday

Time Temperature Precipitation Wind Pressure Humidity
00:00 +22°C° 0 mm 3 mps 716 mmHg 85%
01:00 +22°C° 0 mm 3 mps 716 mmHg 85%
02:00 +22°C° 0.2 mm 3 mps 715 mmHg 85%
03:00 +21°C° 0.2 mm 3 mps 715 mmHg 86%
04:00 +21°C° 0.2 mm 3 mps 715 mmHg 86%
05:00 +21°C° 0.4 mm 3 mps 715 mmHg 86%
06:00 +21°C° 0.4 mm 3 mps 716 mmHg 86%
07:00 +21°C° 0.4 mm 4 mps 716 mmHg 86%
08:00 +23°C° 0.1 mm 4 mps 716 mmHg 82%
09:00 +25°C° 0.1 mm 5 mps 717 mmHg 78%
10:00 +26°C° 0.1 mm 5 mps 717 mmHg 75%
11:00 +27°C° 0.1 mm 5 mps 717 mmHg 72%
12:00 +28°C° 0.1 mm 5 mps 717 mmHg 69%
13:00 +29°C° 0.1 mm 5 mps 716 mmHg 65%
14:00 +29°C° 0.1 mm 5 mps 716 mmHg 66%
15:00 +29°C° 0.1 mm 5 mps 715 mmHg 66%
16:00 +29°C° 0.1 mm 4 mps 715 mmHg 67%
17:00 +28°C° 0.1 mm 4 mps 715 mmHg 71%
18:00 +27°C° 0.1 mm 3 mps 715 mmHg 76%
19:00 +25°C° 0.1 mm 3 mps 715 mmHg 80%
20:00 +25°C° 0.1 mm 3 mps 715 mmHg 81%
21:00 +24°C° 0.1 mm 3 mps 716 mmHg 82%
22:00 +24°C° 0.1 mm 3 mps 716 mmHg 83%
23:00 +24°C° 0 mm 3 mps 716 mmHg 84%
Show more